Location: Unspecified
(48.2082°N, 0.0000°E)
Time: 19:15:16
(UTC+00:00)

Transit 4A - Pass Details

Date: 19 June 2019
Orbit: 862 x 982 km, 66.8° (Epoch: 16 July)

Event Time Altitude Azimuth Distance (km) Brightness Sun altitude
Rises 10:18:29 0° 242° (WSW) 3,630 10.9 57.9°
Reaches altitude 10° 10:21:11 10° 250° (WSW) 2,702 10.3 58.3°
Maximum altitude 10:27:05 39° 318° (NW) 1,423 9.1 59.0°
Drops below altitude 10° 10:33:06 10° 27° (NNE) 2,746 10.4 59.7°
Sets 10:35:53 0° 35° (NE) 3,697 11.0 60.0°
